Weather History for KPPO - February, 2014

Change the Weather History Date:

Monday, February 24, 2014

  Actual Average (KVPZ) Record (KVPZ)
Temperature  
Mean Temperature 18 °F 30 °F  
Max Temperature 25 °F 38 °F 59 °F (2002)
Min Temperature 10 °F 23 °F 0 °F (2015)
Degree Days  
Heating Degree Days 48 35  
Month to date heating degree days 914  
Since 1 July heating degree days 4599  
Cooling Degree Days 0 0  
Month to date cooling degree days 0  
Year to date cooling degree days 0  
Moisture  
Dew Point 8 °F    
Average Humidity 63    
Maximum Humidity 77    
Minimum Humidity 45    
Precipitation  
Precipitation 0.00 in 0.04 in 1.76 in (2001)
Month to date precipitation 1.20  
Year to date precipitation 2.95  
Sea Level Pressure  
Sea Level Pressure 30.21 in    
Wind  
Wind Speed 8 mph (West)    
Max Wind Speed 14 mph    
Max Gust Speed 24 mph    
Visibility 10 miles    
Events Snow    
T = Trace of Precipitation, MM = Missing Value Source: NWS Daily Summary

Daily Weather History Graph

Daily Weather History Graph

Search for Another Location

Airport or City:

Trip Planner

Search our weather history database for the weather conditions in past years. The results will help you decide how hot, cold, wet, or windy it might be!

Date:

Astronomy

Feb. 24, 2014 Rise Set
Actual Time 6:29 AM CST 5:31 PM CST
Civil Twilight 6:01 AM CST 5:59 PM CST
Nautical Twilight 5:29 AM CST 6:31 PM CST
Astronomical Twilight 4:57 AM CST 7:03 PM CST
Moon 2:29 AM CST (2/24) 12:29 PM CST (2/24)
Length of Visible Light 11h 58m
Length of Day
11h 02m
Waning Crescent, 28% of the Moon is Illuminated
Feb 24
Waning Crescent
Mar 1
New
Mar 8
First Quarter
Mar 16
Full
Mar 23
Last Quarter

Hourly Weather History & Observations

Time (CST) Temp. Windchill Dew Point Humidity Pressure Visibility Wind Dir Wind Speed Gust Speed Precip Events Conditions
12:15 AM 16.0 °F 5.3 °F 7.3 °F 69% 30.18 in 10.0 mi West 8.1 mph - N/A   Mostly Cloudy
12:35 AM 15.6 °F 4.9 °F 7.3 °F 70% 30.18 in 10.0 mi West 8.1 mph - N/A   Scattered Clouds
12:55 AM 15.3 °F 4.4 °F 7.3 °F 71% 30.19 in 10.0 mi West 8.1 mph - N/A   Scattered Clouds
1:15 AM 16.2 °F 9.0 °F 7.9 °F 70% 30.19 in 10.0 mi WNW 4.6 mph - N/A   Mostly Cloudy
1:35 AM 16.3 °F 9.2 °F 7.9 °F 69% 30.18 in 10.0 mi WNW 4.6 mph - N/A   Mostly Cloudy
1:55 AM 16.2 °F 7.6 °F 7.7 °F 69% 30.18 in 10.0 mi WNW 5.8 mph - N/A   Scattered Clouds
2:15 AM 15.8 °F 6.1 °F 7.5 °F 70% 30.18 in 10.0 mi WNW 6.9 mph - N/A   Scattered Clouds
2:35 AM 14.7 °F 5.9 °F 7.5 °F 73% 30.18 in 10.0 mi West 5.8 mph - N/A   Scattered Clouds
2:55 AM 15.4 °F 5.6 °F 7.5 °F 71% 30.18 in 10.0 mi WNW 6.9 mph - N/A   Mostly Cloudy
3:15 AM 15.4 °F 5.6 °F 7.2 °F 70% 30.18 in 10.0 mi WNW 6.9 mph - N/A   Scattered Clouds
3:35 AM 15.1 °F 5.2 °F 7.2 °F 71% 30.18 in 10.0 mi WNW 6.9 mph - N/A   Scattered Clouds
3:55 AM 14.9 °F 6.1 °F 7.2 °F 71% 30.19 in 10.0 mi WNW 5.8 mph - N/A   Mostly Cloudy
4:15 AM 14.4 °F 3.3 °F 6.8 °F 72% 30.19 in 10.0 mi West 8.1 mph - N/A   Mostly Cloudy
4:35 AM 12.0 °F 4.1 °F 5.9 °F 76% 30.18 in 10.0 mi West 4.6 mph - N/A   Mostly Cloudy
4:55 AM 11.3 °F 0.7 °F 5.4 °F 77% 30.19 in 10.0 mi WSW 6.9 mph - N/A   Mostly Cloudy
5:15 AM 11.1 °F 1.7 °F 5.0 °F 76% 30.19 in 10.0 mi West 5.8 mph - N/A   Scattered Clouds
5:35 AM 10.9 °F -0.8 °F 4.6 °F 76% 30.20 in 10.0 mi West 8.1 mph - N/A   Mostly Cloudy
5:55 AM 10.9 °F -0.8 °F 4.5 °F 75% 30.20 in 10.0 mi WSW 8.1 mph - N/A   Scattered Clouds
6:15 AM 10.8 °F 0.0 °F 4.5 °F 76% 30.21 in 10.0 mi West 6.9 mph - N/A   Scattered Clouds
6:35 AM 10.9 °F -0.8 °F 4.6 °F 76% 30.21 in 10.0 mi West 8.1 mph - N/A Snow Light Snow
6:55 AM 10.9 °F -0.8 °F 4.6 °F 76% 30.21 in 10.0 mi WSW 8.1 mph - N/A   Scattered Clouds
7:15 AM 11.7 °F -1.7 °F 5.0 °F 75% 30.22 in 10.0 mi West 10.4 mph - N/A   Clear
7:35 AM 12.2 °F -0.2 °F 5.0 °F 73% 30.22 in 10.0 mi West 9.2 mph - N/A   Clear
7:55 AM 13.1 °F 1.8 °F 5.5 °F 72% 30.22 in 10.0 mi West 8.1 mph - N/A   Clear
8:15 AM 14.0 °F 2.9 °F 6.3 °F 71% 30.23 in 10.0 mi West 8.1 mph - N/A   Clear
8:35 AM 15.6 °F 4.0 °F 7.5 °F 70% 30.23 in 10.0 mi West 9.2 mph - N/A   Clear
8:55 AM 17.4 °F 6.2 °F 8.4 °F 68% 30.23 in 10.0 mi WNW 9.2 mph - N/A   Clear
9:15 AM 18.5 °F 7.5 °F 8.4 °F 65% 30.24 in 10.0 mi West 9.2 mph 17.3 mph N/A   Clear
9:35 AM 18.9 °F 8.8 °F 8.4 °F 64% 30.24 in 10.0 mi West 8.1 mph - N/A   Clear
9:55 AM 19.4 °F 7.9 °F 8.1 °F 61% 30.25 in 10.0 mi West 10.4 mph 17.3 mph N/A   Clear
10:15 AM 19.9 °F 7.3 °F 8.6 °F 61% 30.25 in 10.0 mi West 12.7 mph 16.1 mph N/A   Clear
10:35 AM 20.3 °F 9.8 °F 7.5 °F 58% 30.25 in 10.0 mi West 9.2 mph 18.4 mph N/A   Clear
10:55 AM 21.2 °F 9.5 °F 8.6 °F 58% 30.24 in 10.0 mi West 11.5 mph 16.1 mph N/A   Clear
11:15 AM 21.7 °F 9.6 °F 9.1 °F 58% 30.25 in 10.0 mi West 12.7 mph - N/A   Clear
11:35 AM 22.1 °F 12.8 °F 7.5 °F 54% 30.25 in 10.0 mi WNW 8.1 mph - N/A   Clear
11:55 AM 22.8 °F 12.9 °F 6.4 °F 50% 30.24 in 10.0 mi WNW 9.2 mph 19.6 mph N/A   Clear
12:15 PM 23.9 °F 11.7 °F 7.2 °F 49% 30.24 in 10.0 mi West 13.8 mph 24.2 mph N/A   Clear
12:35 PM 24.6 °F 15.8 °F 6.3 °F 46% 30.23 in 10.0 mi West 8.1 mph - N/A   Clear
12:55 PM 24.8 °F 15.3 °F 6.4 °F 46% 30.22 in 10.0 mi West 9.2 mph - N/A   Clear
1:15 PM 25.5 °F 16.9 °F 6.8 °F 45% 30.22 in 10.0 mi WSW 8.1 mph - N/A   Clear
1:35 PM 24.8 °F 12.9 °F 8.8 °F 51% 30.22 in 10.0 mi WSW 13.8 mph 21.9 mph N/A   Clear
1:55 PM 24.8 °F 12.9 °F 11.3 °F 57% 30.21 in 10.0 mi SW 13.8 mph - N/A   Clear
2:15 PM 24.6 °F 13.8 °F 10.4 °F 55% 30.21 in 10.0 mi WSW 11.5 mph 17.3 mph N/A   Clear
2:35 PM 24.4 °F 12.4 °F 9.5 °F 53% 30.21 in 10.0 mi WSW 13.8 mph 18.4 mph N/A   Clear
2:55 PM 24.8 °F 14.0 °F 9.3 °F 52% 30.21 in 10.0 mi West 11.5 mph 17.3 mph N/A   Clear
3:15 PM 24.4 °F 13.5 °F 8.6 °F 51% 30.21 in 10.0 mi West 11.5 mph 19.6 mph N/A   Clear
3:35 PM 24.8 °F 13.4 °F 8.4 °F 50% 30.21 in 10.0 mi West 12.7 mph 17.3 mph N/A   Clear
3:55 PM 24.4 °F 12.4 °F 7.7 °F 49% 30.21 in 10.0 mi West 13.8 mph 20.7 mph N/A   Clear
4:15 PM 23.9 °F 13.5 °F 8.1 °F 51% 30.21 in 10.0 mi West 10.4 mph - N/A   Clear
4:35 PM 23.5 °F 13.0 °F 7.9 °F 51% 30.19 in 10.0 mi West 10.4 mph - N/A   Clear
4:55 PM 23.0 °F 14.7 °F 8.1 °F 53% 30.20 in 10.0 mi West 6.9 mph - N/A   Clear
5:15 PM 22.6 °F 12.6 °F 7.7 °F 53% 30.20 in 10.0 mi West 9.2 mph - N/A   Clear
5:35 PM 21.9 °F 13.4 °F 7.7 °F 54% 30.20 in 10.0 mi West 6.9 mph - N/A   Clear
5:55 PM 21.9 °F 11.7 °F 8.2 °F 56% 30.20 in 10.0 mi WSW 9.2 mph - N/A   Scattered Clouds
6:15 PM 21.6 °F 13.0 °F 9.7 °F 60% 30.21 in 10.0 mi WSW 6.9 mph - N/A   Scattered Clouds
6:35 PM 21.0 °F 12.4 °F 10.4 °F 64% 30.20 in 10.0 mi West 6.9 mph - N/A   Mostly Cloudy
6:55 PM 20.5 °F 12.8 °F 8.6 °F 60% 30.20 in 10.0 mi WSW 5.8 mph - N/A   Mostly Cloudy
7:15 PM 19.4 °F 10.4 °F 8.4 °F 62% 30.20 in 10.0 mi West 6.9 mph - N/A   Mostly Cloudy
7:35 PM 19.0 °F 11.1 °F 7.7 °F 61% 30.20 in 10.0 mi West 5.8 mph - N/A   Mostly Cloudy
7:55 PM 18.5 °F 10.4 °F 7.5 °F 62% 30.20 in 10.0 mi West 5.8 mph - N/A   Mostly Cloudy
8:15 PM 18.9 °F 10.8 °F 7.9 °F 62% 30.19 in 10.0 mi WSW 5.8 mph - N/A   Mostly Cloudy
8:35 PM 19.0 °F 12.3 °F 8.4 °F 63% 30.19 in 10.0 mi West 4.6 mph - N/A   Overcast
8:55 PM 19.0 °F 10.0 °F 8.4 °F 63% 30.20 in 10.0 mi West 6.9 mph - N/A   Mostly Cloudy
9:15 PM 19.0 °F 13.9 °F 8.8 °F 64% 30.19 in 10.0 mi West 3.5 mph - N/A   Overcast
9:35 PM 18.5 °F 11.7 °F 9.1 °F 67% 30.20 in 10.0 mi WSW 4.6 mph - N/A   Mostly Cloudy
9:55 PM 18.5 °F 10.4 °F 9.3 °F 67% 30.20 in 10.0 mi West 5.8 mph - N/A   Scattered Clouds
10:15 PM 18.5 °F 11.7 °F 9.1 °F 67% 30.19 in 10.0 mi WSW 4.6 mph - N/A   Mostly Cloudy
10:35 PM 18.5 °F 11.7 °F 9.3 °F 67% 30.18 in 10.0 mi WSW 4.6 mph - N/A   Mostly Cloudy
10:55 PM 18.7 °F 11.9 °F 9.5 °F 67% 30.19 in 10.0 mi WSW 4.6 mph - N/A   Overcast
11:15 PM 18.7 °F 10.6 °F 10.0 °F 69% 30.19 in 10.0 mi WSW 5.8 mph - N/A   Overcast
11:35 PM 18.9 °F 9.8 °F 9.7 °F 67% 30.19 in 10.0 mi West 6.9 mph - N/A   Overcast
11:55 PM 18.9 °F 9.8 °F 9.9 °F 68% 30.19 in 10.0 mi West 6.9 mph - N/A   Overcast